FW6905 Weather Reports


Display with metric or nautical units.
time (UTC)temp
F
wind
direction
speed
MPH
gust
MPH
rain 1hr
in
rain 24hr
in
rain mn
in
humidity
%
barometer
mb
20260505153006 57 133 1.0 2.0 0.04 0.16 0.16 82 1015.7
20260505152506 57 140 0.0 2.0 0.04 0.16 0.16 82 1015.7
20260505151506 57 188 0.0 2.0 0.04 0.16 0.16 81 1015.7
20260505150506 57 0 0.0 0.0 0.00 0.12 0.12 81 1014.7
20260505140506 58 80 0.0 3.0 0.00 0.12 0.12 82 1015.7
20260505125006 58 296 1.0 4.0 0.04 0.12 0.12 80 1015.7
20260505124506 58 306 2.0 4.0 0.04 0.12 0.12 79 1015.7
20260505124007 58 322 3.0 4.0 0.04 0.12 0.12 80 1016.7
20260505123506 58 312 1.0 4.0 0.00 0.08 0.08 80 1016.7
20260505123006 59 282 2.0 4.0 0.00 0.08 0.08 80 1016.7
20260505122506 59 255 1.0 3.0 0.00 0.08 0.08 79 1016.7
20260505122006 59 261 0.0 3.0 0.00 0.08 0.08 79 1016.7
20260505121506 59 277 2.0 4.0 0.00 0.08 0.08 79 1016.7
20260505121006 59 282 2.0 6.0 0.00 0.08 0.08 79 1016.7
20260505115506 59 299 4.0 6.0 0.04 0.08 0.08 78 1016.7
20260505115006 59 281 1.0 6.0 0.04 0.08 0.08 78 1016.7
20260505114506 59 277 4.0 6.0 0.04 0.08 0.08 78 1016.7
20260505114006 59 278 2.0 7.0 0.04 0.08 0.08 78 1016.7
20260505113506 59 299 4.0 7.0 0.04 0.08 0.08 76 1016.7
20260505112506 59 274 5.0 9.0 0.04 0.08 0.08 75 1016.7
20260505112006 59 253 2.0 11.0 0.04 0.08 0.08 74 1016.7
20260505111506 60 275 5.0 11.0 0.04 0.08 0.08 74 1016.7
20260505111006 60 279 4.0 8.0 0.08 0.08 0.08 74 1016.7
20260505102006 62 292 2.0 3.0 0.04 0.04 0.04 68 1016.7
20260505101006 63 288 2.0 9.0 0.00 0.00 0.00 64 1016.7
20260505100506 63 296 4.0 9.0 0.00 0.00 0.00 63 1016.7
20260505095506 63 288 2.0 5.0 0.00 0.00 0.00 61 1016.7
20260505095006 63 295 2.0 9.0 0.00 0.00 0.00 61 1016.7
20260505094506 63 293 4.0 9.0 0.00 0.00 0.00 61 1016.7
20260505093006 62 271 2.0 6.0 0.00 0.00 0.00 61 1016.7
20260505092506 62 252 4.0 6.0 0.00 0.00 0.00 61 1016.7
20260505092006 62 246 3.0 5.0 0.00 0.00 0.00 61 1016.7
20260505091506 62 273 2.0 4.0 0.00 0.00 0.00 61 1016.7
20260505091006 61 273 1.0 3.0 0.00 0.00 0.00 61 1016.7
20260505090005 61 289 0.0 2.0 0.00 0.00 0.00 61 1016.7
20260505085006 61 156 0.0 2.0 0.00 0.00 0.00 61 1016.7
20260505084506 61 342 0.0 2.0 0.00 0.00 0.00 62 1016.7
20260505084006 61 60 0.0 2.0 0.00 0.00 0.00 62 1015.7
20260505083506 61 173 0.0 3.0 0.00 0.00 0.00 63 1015.7
20260505083006 60 162 2.0 3.0 0.00 0.00 0.00 63 1015.7
20260505082506 60 102 0.0 4.0 0.00 0.00 0.00 64 1016.7
20260505081006 58 102 0.0 2.0 0.00 0.00 0.00 68 1016.7
20260505080506 57 86 1.0 2.0 0.00 0.00 0.00 70 1016.7
20260505080006 57 50 0.0 2.0 0.00 0.00 0.00 70 1016.7
20260505075506 56 14 0.0 2.0 0.00 0.00 0.00 71 1016.7
20260505075006 56 358 1.0 2.0 0.00 0.00 0.00 72 1016.7
20260505074506 56 36 1.0 2.0 0.00 0.00 0.00 72 1016.7
20260505074006 55 91 0.0 2.0 0.00 0.00 0.00 73 1016.7
20260505073006 55 322 0.0 2.0 0.00 0.00 0.00 74 1016.7
20260505072006 54 280 2.0 2.0 0.00 0.00 0.00 75 1016.7
20260505071506 54 155 0.0 2.0 0.00 0.00 0.00 75 1016.7
20260505071006 54 192 2.0 2.0 0.00 0.00 0.00 76 1016.7
20260505070506 54 207 2.0 2.0 0.00 0.00 0.00 76 1016.7
20260505070006 53 166 0.0 2.0 0.00 0.00 0.00 76 1016.7
20260505065506 53 307 0.0 2.0 0.00 0.00 0.00 78 1016.7
20260505065005 53 321 0.0 2.0 0.00 0.00 0.00 78 1016.7
20260505064006 52 55 0.0 2.0 0.00 0.00 0.00 79 1016.7
20260505063506 52 23 0.0 2.0 0.00 0.00 0.00 79 1016.7
20260505063006 52 23 0.0 2.0 0.00 0.00 0.00 79 1016.7
20260505062506 52 0 0.0 0.0 0.00 0.00 0.00 79 1016.7
20260505062006 51 112 0.0 1.0 0.00 0.00 0.00 80 1016.7
20260505061506 51 112 0.0 2.0 0.00 0.00 0.00 80 1016.7
20260505061006 51 112 0.0 2.0 0.00 0.00 0.00 80 1016.7
20260505060506 51 104 1.0 2.0 0.00 0.00 0.00 80 1016.7
20260505060006 51 91 0.0 2.0 0.00 0.00 0.00 81 1016.7
20260505055506 51 97 1.0 2.0 0.00 0.00 0.00 81 1016.7
20260505055006 50 95 2.0 3.0 0.00 0.00 0.00 81 1016.7
20260505054506 50 95 2.0 3.0 0.00 0.00 0.00 81 1016.7
20260505054006 50 112 2.0 2.0 0.00 0.00 0.00 81 1015.7
20260505053006 50 0 0.0 0.0 0.00 0.00 0.00 81 1015.7
20260505052006 49 0 0.0 0.0 0.00 0.00 0.00 82 1016.7
20260505051505 49 0 0.0 0.0 0.00 0.00 0.00 82 1016.7
20260505051006 49 0 0.0 0.0 0.00 0.00 0.00 82 1016.7
20260505050506 49 112 0.0 2.0 0.00 0.00 0.00 82 1016.7
20260505041005 46 135 0.0 2.0 0.00 0.00 0.00 79 1015.7
20260505040506 46 135 0.0 2.0 0.00 0.00 0.00 79 1015.7
20260505040006 46 0 0.0 0.0 0.00 0.00 0.00 79 1015.7
20260505035506 46 0 0.0 0.0 0.00 0.00 0.00 79 1015.7
20260505034506 46 51 0.0 2.0 0.00 0.00 0.00 78 1015.7
20260505034006 46 58 1.0 2.0 0.00 0.00 0.00 79 1015.7
20260505033506 46 90 0.0 1.0 0.00 0.00 0.00 79 1015.7
20260505032505 46 0 0.0 0.0 0.00 0.00 0.00 79 1015.7
20260505032006 46 0 0.0 0.0 0.00 0.00 0.00 79 1015.7
20260505031006 47 0 0.0 0.0 0.00 0.00 0.00 78 1015.7
20260505030506 47 0 0.0 0.0 0.00 0.00 0.00 78 1015.7
20260505030006 47 0 0.0 0.0 0.00 0.00 0.00 78 1015.7
20260505025506 47 0 0.0 0.0 0.00 0.00 0.00 78 1016.7
20260505025005 47 0 0.0 0.0 0.00 0.00 0.00 78 1016.7
20260505024506 47 29 0.0 2.0 0.00 0.00 0.00 78 1016.7
20260505024005 47 40 0.0 2.0 0.00 0.00 0.00 78 1016.7
20260505023506 47 50 1.0 2.0 0.00 0.00 0.00 76 1016.7
20260505023005 47 112 0.0 2.0 0.00 0.00 0.00 78 1016.7
20260505022506 47 0 0.0 0.0 0.00 0.00 0.00 78 1017.7
20260505022006 47 0 0.0 0.0 0.00 0.00 0.00 78 1017.7
20260505021505 47 112 0.0 2.0 0.00 0.00 0.00 79 1017.7
20260505021006 47 91 0.0 2.0 0.00 0.00 0.00 79 1017.7
20260505020505 47 74 2.0 2.0 0.00 0.00 0.00 79 1017.7
20260505020006 47 70 2.0 2.0 0.00 0.00 0.00 78 1017.7
20260505015506 47 68 2.0 2.0 0.00 0.00 0.00 76 1017.7
20260505015006 47 0 0.0 0.0 0.00 0.00 0.00 76 1017.7
20260505014506 47 0 0.0 0.0 0.00 0.00 0.00 78 1017.7
20260505014006 47 66 0.0 2.0 0.00 0.00 0.00 78 1017.7
20260505013506 48 63 0.0 2.0 0.00 0.00 0.00 76 1017.7
20260505013006 47 67 1.0 3.0 0.00 0.00 0.00 76 1017.7
20260505012506 47 71 1.0 3.0 0.00 0.00 0.00 76 1017.7
20260505012005 48 69 1.0 2.0 0.00 0.00 0.00 76 1017.7
20260505011506 48 0 0.0 0.0 0.00 0.00 0.00 76 1017.7
20260505010505 48 68 0.0 2.0 0.00 0.00 0.00 75 1017.7
20260505010006 48 68 0.0 2.0 0.00 0.00 0.00 75 1017.7
20260505005506 48 69 0.0 2.0 0.00 0.00 0.00 74 1017.7
20260505005006 48 70 1.0 2.0 0.00 0.00 0.00 76 1017.7
20260505004505 48 83 0.0 2.0 0.00 0.00 0.00 74 1017.7
20260505004006 49 0 0.0 0.0 0.00 0.00 0.00 75 1017.7
20260505003006 49 100 0.0 2.0 0.00 0.00 0.00 74 1017.7
20260505002505 49 89 0.0 2.0 0.00 0.00 0.00 74 1017.7
20260505001505 49 90 1.0 2.0 0.00 0.00 0.00 75 1017.7
20260505001006 49 0 0.0 0.0 0.00 0.00 0.00 74 1017.7
20260505000506 49 90 0.0 1.0 0.00 0.00 0.00 74 1017.7
20260505000005 49 83 0.0 2.0 0.00 0.00 0.00 74 1017.7
20260504235506 49 78 0.0 2.0 0.00 0.00 0.00 73 1017.7
20260504235006 49 76 2.0 2.0 0.00 0.00 0.00 73 1017.7
20260504234505 50 74 2.0 2.0 0.00 0.00 0.00 73 1017.7
20260504234006 50 53 1.0 2.0 0.00 0.00 0.00 73 1017.7
20260504233506 50 0 0.0 0.0 0.00 0.00 0.00 73 1017.7
20260504232506 50 0 0.0 0.0 0.00 0.00 0.00 72 1017.7
20260504232006 50 0 0.0 0.0 0.00 0.00 0.00 73 1017.7
20260504231505 50 0 0.0 0.0 0.00 0.00 0.00 72 1017.7
20260504231006 51 0 0.0 0.0 0.00 0.00 0.00 71 1018.8
20260504230505 51 0 0.0 0.0 0.00 0.00 0.00 70 1018.8
20260504230006 51 0 0.0 0.0 0.00 0.00 0.00 70 1018.8
20260504225505 51 0 0.0 0.0 0.00 0.00 0.00 70 1017.7
20260504224506 51 112 0.0 2.0 0.00 0.00 0.00 70 1017.7
20260504224005 52 22 0.0 2.0 0.00 0.00 0.00 70 1018.8
20260504223506 52 22 0.0 2.0 0.00 0.00 0.00 69 1018.8
20260504223005 52 45 0.0 1.0 0.00 0.00 0.00 69 1018.8
20260504222006 53 0 0.0 0.0 0.00 0.00 0.00 69 1018.8
20260504221505 53 0 0.0 0.0 0.00 0.00 0.00 69 1018.8
20260504221006 53 203 0.0 2.0 0.00 0.00 0.00 70 1017.7
20260504220506 53 22 0.0 2.0 0.00 0.00 0.00 69 1017.7
20260504220010 53 23 0.0 2.0 0.00 0.00 0.00 68 1017.7
20260504215505 53 112 0.0 1.0 0.00 0.00 0.00 68 1018.8
20260504214506 54 0 0.0 0.0 0.00 0.00 0.00 67 1018.8
20260504214005 54 1 0.0 1.0 0.00 0.00 0.00 67 1018.8
20260504213505 54 1 0.0 1.0 0.00 0.00 0.00 68 1018.8
20260504213006 54 1 0.0 2.0 0.00 0.00 0.00 67 1018.8
20260504212006 54 85 0.0 2.0 0.00 0.00 0.00 67 1018.8
20260504211505 55 68 0.0 2.0 0.00 0.00 0.00 67 1018.8
20260504205505 55 0 0.0 0.0 0.00 0.00 0.00 69 1017.7
20260504205006 55 0 0.0 0.0 0.00 0.00 0.00 67 1017.7
20260504204505 56 45 0.0 2.0 0.00 0.00 0.00 66 1017.7
20260504203005 56 0 0.0 0.0 0.00 0.00 0.00 67 1017.7
20260504202505 56 0 0.0 0.0 0.00 0.00 0.00 66 1018.8
20260504202006 56 0 0.0 0.0 0.00 0.00 0.00 65 1018.8
20260504201505 57 0 0.0 0.0 0.00 0.00 0.00 64 1018.8
20260504201006 57 0 0.0 0.0 0.00 0.00 0.00 63 1018.8
20260504200505 57 0 0.0 0.0 0.00 0.00 0.00 64 1018.8
20260504200006 57 0 0.0 0.0 0.00 0.00 0.00 62 1018.8
20260504195505 58 100 0.0 2.0 0.00 0.00 0.00 62 1017.7
20260504195006 58 100 0.0 2.0 0.00 0.00 0.00 62 1017.7
20260504194006 58 158 0.0 2.0 0.00 0.00 0.00 61 1018.8
20260504193505 58 158 1.0 2.0 0.00 0.00 0.00 61 1018.8
20260504193005 59 68 0.0 1.0 0.00 0.00 0.00 58 1018.8
20260504192506 60 69 0.0 2.0 0.00 0.00 0.00 57 1017.7
20260504192005 60 65 0.0 2.0 0.00 0.00 0.00 57 1017.7
20260504191507 60 44 0.0 2.0 0.00 0.00 0.00 57 1017.7
20260504191005 60 41 0.0 2.0 0.00 0.00 0.00 55 1017.7
20260504190505 61 28 1.0 2.0 0.00 0.00 0.00 54 1017.7
20260504190005 61 302 0.0 2.0 0.00 0.00 0.00 55 1017.7
20260504185505 62 302 0.0 2.0 0.00 0.00 0.00 54 1017.7
20260504184505 62 337 0.0 1.0 0.00 0.00 0.00 52 1017.7
20260504184006 63 181 0.0 2.0 0.00 0.00 0.00 51 1017.7
20260504183505 63 177 0.0 2.0 0.00 0.00 0.00 52 1017.7
20260504183005 64 150 0.0 2.0 0.00 0.00 0.00 51 1017.7
20260504182005 65 353 1.0 2.0 0.00 0.00 0.00 48 1017.7
20260504181505 65 292 0.0 2.0 0.00 0.00 0.00 49 1017.7
20260504181005 65 254 0.0 2.0 0.00 0.00 0.00 49 1017.7
20260504180505 66 246 1.0 2.0 0.00 0.00 0.00 46 1017.7
20260504175505 67 241 2.0 3.0 0.00 0.00 0.00 44 1017.7
20260504175005 67 255 2.0 3.0 0.00 0.00 0.00 43 1017.7
20260504174506 68 257 2.0 2.0 0.00 0.00 0.00 42 1017.7
20260504174005 68 248 0.0 2.0 0.00 0.00 0.00 42 1017.7
20260504173506 68 241 0.0 2.0 0.00 0.00 0.00 40 1017.7
20260504173005 69 234 2.0 2.0 0.00 0.00 0.00 39 1017.7
20260504172506 69 249 1.0 2.0 0.00 0.00 0.00 37 1017.7
20260504172005 69 252 2.0 2.0 0.00 0.00 0.00 36 1017.7
20260504171506 70 243 1.0 2.0 0.00 0.00 0.00 35 1017.7
20260504171006 70 237 2.0 2.0 0.00 0.00 0.00 34 1017.7
20260504170505 70 242 1.0 2.0 0.00 0.00 0.00 33 1017.7